Cosmos 2084 - Orbit

View from above orbital plane
View from above orbital plane
View from above satellite
View from above satellite

Ground track
Ground track

The orbit data is extracted from the following two-line orbital elements,

1 20663U 90055A   13139.55025151  .00000948  00000-0  11738-3 0  8024
2 20663 062.7952 146.9200 0075585 173.6999 186.5063 14.87859155237831
Epoch (UTC): 19 May 2013 13:12:21
Eccentricity: 0.0075585
inclination: 62.7952°
perigee height: 552 km
apogee height: 657 km
right ascension of ascending node: 146.9200°
argument of perigee: 173.6999°
revolutions per day: 14.87859155
mean anomaly at epoch: 186.5063°
orbit number at epoch: 23783

The dashed part of the orbit path shows where the satellite is in the earth's shadow,  

Developed and maintained by Chris Peat, Heavens-Above GmbH. Please read the updated FAQ before sending e-mail. Imprint. DLR